Location: �perlecques
(50.8057°N, 2.1521°E)
Time: 00:20:04
(UTC+00:00)

NOSS 3-4 (A) - Pass Details

Date: 09 April 2020
Orbit: 892 x 1320 km, 63.4° (Epoch: 01 June)

Event Time Altitude Azimuth Distance (km) Brightness Sun altitude
Rises 19:23:53 0° 315° (NW) 3,804 8.1 -7.7°
Reaches altitude 10° 19:26:25 10° 312° (NW) 2,906 7.4 -8.1°
Maximum altitude 19:33:15 63° 234° (SW) 1,279 4.3 -9.1°
Drops below altitude 10° 19:40:48 10° 156° (SSE) 3,195 5.7 -10.2°
Enters shadow 19:42:34 - 154° (SSE) 3,812 6.1 -10.4°
